Time,TemperatureF,DewpointF,PressureIn,WindDirection,WindDirectionDegrees,WindSpeedMPH,WindSpeedGustMPH,Humidity,HourlyPrecipIn,Conditions,Clouds,dailyrainin,SoftwareType,DateUTC
2013-06-17 00:22:00,50.0,-99.9,-100.00,NNE,25,9.0,10.0,-999,-99.99,,,-99.99,,2013-06-17 06:22:00,
2013-06-17 00:30:00,50.0,-99.9,-100.00,NNE,16,1.0,5.0,-999,-99.99,,,-99.99,,2013-06-17 06:30:00,
2013-06-17 01:22:00,50.0,-99.9,-100.00,NNE,16,1.0,5.0,-999,-99.99,,,-99.99,,2013-06-17 07:22:00,
2013-06-17 01:30:00,52.0,-99.9,-100.00,NNE,17,1.0,1.0,-999,-99.99,,,-99.99,,2013-06-17 07:30:00,
2013-06-17 02:22:00,52.0,-99.9,-100.00,NNE,17,1.0,1.0,-999,-99.99,,,-99.99,,2013-06-17 08:22:00,
2013-06-17 02:30:00,48.0,-99.9,-100.00,East,95,2.0,2.0,-999,-99.99,,,-99.99,,2013-06-17 08:30:00,
2013-06-17 03:22:00,48.0,-99.9,-100.00,East,95,2.0,2.0,-999,-99.99,,,-99.99,,2013-06-17 09:22:00,
2013-06-17 03:30:00,45.0,-99.9,-100.00,NNE,28,2.0,2.0,-999,-99.99,,,-99.99,,2013-06-17 09:30:00,
2013-06-17 04:23:00,45.0,-99.9,-100.00,NNE,28,2.0,2.0,-999,-99.99,,,-99.99,,2013-06-17 10:23:00,
2013-06-17 04:30:00,45.0,-99.9,-100.00,NNE,20,1.0,1.0,-999,-99.99,,,-99.99,,2013-06-17 10:30:00,
2013-06-17 05:23:00,45.0,-99.9,-100.00,NNE,20,1.0,1.0,-999,-99.99,,,-99.99,,2013-06-17 11:23:00,
2013-06-17 07:22:00,43.0,-99.9,-100.00,East,97,1.0,1.0,-999,-99.99,,,-99.99,,2013-06-17 13:22:00,
2013-06-17 07:30:00,55.0,-99.9,-100.00,East,90,1.0,2.0,-999,-99.99,,,-99.99,,2013-06-17 13:30:00,
2013-06-17 08:22:00,55.0,-99.9,-100.00,East,90,1.0,2.0,-999,-99.99,,,-99.99,,2013-06-17 14:22:00,
2013-06-17 08:30:00,55.0,-99.9,-100.00,NNE,20,7.0,8.0,-999,-99.99,,,-99.99,,2013-06-17 14:30:00,
2013-06-17 09:22:00,55.0,-99.9,-100.00,NNE,20,7.0,8.0,-999,-99.99,,,-99.99,,2013-06-17 15:22:00,
2013-06-17 09:30:00,55.0,-99.9,-100.00,NNE,17,7.0,8.0,-999,-99.99,,,-99.99,,2013-06-17 15:30:00,
2013-06-17 10:22:00,55.0,-99.9,-100.00,NNE,17,7.0,8.0,-999,-99.99,,,-99.99,,2013-06-17 16:22:00,
2013-06-17 10:30:00,59.0,-99.9,-100.00,ENE,70,4.0,7.0,-999,-99.99,,,-99.99,,2013-06-17 16:30:00,
2013-06-17 11:02:00,59.0,-99.9,-100.00,ENE,70,4.0,7.0,-999,-99.99,,,-99.99,,2013-06-17 17:02:00,
2013-06-17 11:12:00,59.0,-99.9,-100.00,ENE,70,4.0,7.0,-999,-99.99,,,-99.99,,2013-06-17 17:12:00,
2013-06-17 11:22:00,59.0,-99.9,-100.00,ENE,70,4.0,7.0,-999,-99.99,,,-99.99,,2013-06-17 17:22:00,
2013-06-17 11:30:00,63.0,-99.9,-100.00,East,99,4.0,7.0,-999,-99.99,,,-99.99,,2013-06-17 17:30:00,
2013-06-17 12:02:00,63.0,-99.9,-100.00,East,99,4.0,7.0,-999,-99.99,,,-99.99,,2013-06-17 18:02:00,
2013-06-17 12:12:00,63.0,-99.9,-100.00,East,99,4.0,7.0,-999,-99.99,,,-99.99,,2013-06-17 18:12:00,
2013-06-17 12:23:00,63.0,-99.9,-100.00,East,99,4.0,7.0,-999,-99.99,,,-99.99,,2013-06-17 18:23:00,
2013-06-17 12:30:00,63.0,-99.9,-100.00,East,95,5.0,9.0,-999,-99.99,,,-99.99,,2013-06-17 18:30:00,
2013-06-17 13:02:00,63.0,-99.9,-100.00,East,95,5.0,9.0,-999,-99.99,,,-99.99,,2013-06-17 19:02:00,
2013-06-17 13:12:00,63.0,-99.9,-100.00,East,95,5.0,9.0,-999,-99.99,,,-99.99,,2013-06-17 19:12:00,
2013-06-17 13:22:00,63.0,-99.9,-100.00,East,95,5.0,9.0,-999,-99.99,,,-99.99,,2013-06-17 19:22:00,
2013-06-17 14:02:00,59.0,-99.9,-100.00,ENE,74,7.0,10.0,-999,-99.99,,,-99.99,,2013-06-17 20:02:00,
2013-06-17 14:11:00,59.0,-99.9,-100.00,ENE,74,7.0,10.0,-999,-99.99,,,-99.99,,2013-06-17 20:11:00,
2013-06-17 14:22:00,59.0,-99.9,-100.00,ENE,74,7.0,10.0,-999,-99.99,,,-99.99,,2013-06-17 20:22:00,
2013-06-17 14:30:00,59.0,-99.9,-100.00,North,6,4.0,7.0,-999,-99.99,,,-99.99,,2013-06-17 20:30:00,
2013-06-17 15:02:00,59.0,-99.9,-100.00,North,6,4.0,7.0,-999,-99.99,,,-99.99,,2013-06-17 21:02:00,
2013-06-17 15:12:00,59.0,-99.9,-100.00,North,6,4.0,7.0,-999,-99.99,,,-99.99,,2013-06-17 21:12:00,
2013-06-17 15:22:00,59.0,-99.9,-100.00,North,6,4.0,7.0,-999,-99.99,,,-99.99,,2013-06-17 21:22:00,
2013-06-17 15:30:00,64.0,-99.9,-100.00,NNE,16,5.0,8.0,-999,-99.99,,,-99.99,,2013-06-17 21:30:00,
2013-06-17 16:01:00,64.0,-99.9,-100.00,NNE,16,5.0,8.0,-999,-99.99,,,-99.99,,2013-06-17 22:01:00,
2013-06-17 16:12:00,64.0,-99.9,-100.00,NNE,16,5.0,8.0,-999,-99.99,,,-99.99,,2013-06-17 22:12:00,
2013-06-17 16:22:00,64.0,-99.9,-100.00,NNE,16,5.0,8.0,-999,-99.99,,,-99.99,,2013-06-17 22:22:00,
2013-06-17 17:02:00,64.0,-99.9,-100.00,NNE,29,5.0,10.0,-999,-99.99,,,-99.99,,2013-06-17 23:02:00,
2013-06-17 17:12:00,64.0,-99.9,-100.00,NNE,29,5.0,10.0,-999,-99.99,,,-99.99,,2013-06-17 23:12:00,
2013-06-17 17:22:00,64.0,-99.9,-100.00,NNE,29,5.0,10.0,-999,-99.99,,,-99.99,,2013-06-17 23:22:00,
2013-06-17 18:02:00,66.0,-99.9,-100.00,NE,47,6.0,8.0,-999,-99.99,,,-99.99,,2013-06-18 00:02:00,
2013-06-17 18:12:00,66.0,-99.9,-100.00,NE,47,6.0,8.0,-999,-99.99,,,-99.99,,2013-06-18 00:12:00,
2013-06-17 18:22:00,66.0,-99.9,-100.00,NE,47,6.0,8.0,-999,-99.99,,,-99.99,,2013-06-18 00:22:00,
2013-06-17 19:02:00,66.0,-99.9,-100.00,NE,54,3.0,4.0,-999,-99.99,,,-99.99,,2013-06-18 01:02:00,
2013-06-17 19:12:00,66.0,-99.9,-100.00,NE,54,3.0,4.0,-999,-99.99,,,-99.99,,2013-06-18 01:12:00,
2013-06-17 19:23:00,66.0,-99.9,-100.00,NE,54,3.0,4.0,-999,-99.99,,,-99.99,,2013-06-18 01:23:00,
2013-06-17 20:02:00,66.0,-99.9,-100.00,ENE,71,3.0,3.0,-999,-99.99,,,-99.99,,2013-06-18 02:02:00,
2013-06-17 20:12:00,66.0,-99.9,-100.00,ENE,71,3.0,3.0,-999,-99.99,,,-99.99,,2013-06-18 02:12:00,
2013-06-17 20:23:00,66.0,-99.9,-100.00,ENE,71,3.0,3.0,-999,-99.99,,,-99.99,,2013-06-18 02:23:00,
2013-06-17 21:02:00,61.0,-99.9,-100.00,East,86,5.0,7.0,-999,-99.99,,,-99.99,,2013-06-18 03:02:00,
2013-06-17 21:12:00,61.0,-99.9,-100.00,East,86,5.0,7.0,-999,-99.99,,,-99.99,,2013-06-18 03:12:00,
2013-06-17 21:24:00,61.0,-99.9,-100.00,East,86,5.0,7.0,-999,-99.99,,,-99.99,,2013-06-18 03:24:00,
2013-06-17 22:02:00,54.0,-99.9,-100.00,East,98,6.0,9.0,-999,-99.99,,,-99.99,,2013-06-18 04:02:00,
2013-06-17 22:12:00,54.0,-99.9,-100.00,East,98,6.0,9.0,-999,-99.99,,,-99.99,,2013-06-18 04:12:00,
2013-06-17 22:23:00,54.0,-99.9,-100.00,East,98,6.0,9.0,-999,-99.99,,,-99.99,,2013-06-18 04:23:00,
2013-06-17 23:03:00,52.0,-99.9,-100.00,NE,41,6.0,8.0,-999,-99.99,,,-99.99,,2013-06-18 05:03:00,
2013-06-17 23:12:00,52.0,-99.9,-100.00,NE,41,6.0,8.0,-999,-99.99,,,-99.99,,2013-06-18 05:12:00,
2013-06-17 23:22:00,52.0,-99.9,-100.00,NE,41,6.0,8.0,-999,-99.99,,,-99.99,,2013-06-18 05:22:00,